CZ-6A DEB, 61497

Orbit data source: Space-Track

CZ-6A DEB, 61497 is space debris in LEO originally from a launch on Tue, 06 Aug 2024 UTC launched from the Taiyaun Space Center, China (TSC). Debris objects in space refer to the collection of defunct objects orbiting the Earth. Examples of debris include non-operational satellites, rocket bodies, and fragments generated from explosions, collisions, or faulty payload assembly.

Loading next visibility...
Identifier
61497, 2024-140ABF
Orbit
LEO
Country
Flag of CNCN / PRC
Related business
Manufacturer
SAST
Mission
Spacecraft
Bus & Motor
Unknown
Mass
Unknown
Launch date (UTC)
2024-08-06 (1 year ago)
Launch vehicle
Unknown
Launch site
Taiyaun Space Center, China (TSC)
Object type
Payload
Rocket body
Debris
Shape & HBR
Unknown shape, 0.1 m
Radar Cross Section
Small (<0.1 m²)

Expand to show TLE details & history
Last TLE update: 2 days ago

TLE from 2 days ago
0 CZ-6A DEB
1 61497U 24140ABF 25311.92003446  .00008484  00000-0  15429-2 0  9995
2 61497  88.9996 296.5019 0129880 302.3154  56.5534 14.60675933 64660
Epoch: 2025-11-07T22:04Z
TLE epoch observation values (Epoch: 2025-11-07T22:04:50.977Z)
Latitude
0.00003°
Longitude
-82.06759°
Altitude
644.328 km
Speed
7.562 km/s
True Right ascension
19h 46m 00s
True Declination
0° 00' 00"
Sunlit
Object was in daylight at epoch
Visualization orbit readout
Latitude
Unknown
Longitude
Unknown
Altitude
Unknown
Speed
Unknown
Apparent Right ascension
Unknown
Apparent Declination
Unknown
Sunlit
N/A
Visualization observer readout
Local Sidereal Time
13:38:16
Azimuth
Unknown
Elevation
Unknown
Doppler factor
Unknown
Orbital elements
Apogee altitude
779.658 km
Perigee altitude
596.111 km
Semi-major axis
7,066.022 km
Eccentricity
0.01299
Inclination
88.9996°
RAAN
296.5019°
Arg. of periapsis
302.3154°
True anomaly
57.80636°
Mean anomaly
56.5534°
Eccentric anomaly
57.17876°
Mean motion
3.6541 °/min
Orbital period
98.52 mins
BSTAR
0.0015429
Loading maneuver chart data...
Computing Atmospheric mass density...

Documentation

Showing up to 5 results
|